Wind_Speed
16 16 17 18 18 18 19 19 19 19 19 20 21 21 21 21 22 22 22 22 22 22 23 24 24 25 25 26 28 29 30 30 30 30 30 30 30 31
15 16 16 17 17 17 17 17 18 19 20 21 21 22 23 23 23 23 22 22 23 24 25 26 27 27 28 28 29 29 29 30 31 31 31 31 32 32
16 16 16 16 17 17 18 18 18 19 19 20 21 22 22 23 23 23 24 25 25 26 27 27 28 29 30 29 29 29 30 31 31 32 33 33 34 34
15 15 16 17 17 18 18 18 19 19 19 19 20 21 22 23 23 24 26 26 27 27 27 28 29 29 30 30 30 30 31 32 32 33 34 35 35 36
15 15 16 17 18 18 18 18 19 19 20 20 21 22 22 23 25 25 26 26 27 27 27 28 29 29 30 30 30 30 31 31 32 33 34 35 35 36
15 16 16 16 16 17 17 18 19 20 21 21 22 22 23 24 25 26 26 27 27 27 28 28 28 29 30 31 31 31 32 32 32 33 34 34 35 36
16 17 17 17 17 17 18 19 20 21 21 22 22 23 24 26 26 27 28 28 28 28 29 29 29 29 30 31 31 32 33 33 34 34 35 36 37 37
18 18 18 18 18 19 19 20 21 21 22 23 23 24 25 26 28 28 29 29 28 28 29 28 29 30 31 31 32 32 33 33 33 34 35 36 37 38
19 19 19 19 20 20 21 21 22 22 23 24 25 25 26 27 28 28 28 28 28 29 30 30 30 31 32 32 32 33 33 33 34 35 36 36 36 37
19 20 20 20 21 22 22 23 24 24 24 25 25 26 27 28 28 28 27 28 29 30 31 31 31 32 33 33 33 34 34 34 35 35 35 36 37 38
20 20 21 21 22 23 23 24 24 25 26 26 27 27 28 28 28 28 29 30 31 31 31 32 32 33 33 33 33 34 34 34 35 35 35 36 36 37
21 21 22 23 23 24 24 25 25 26 27 28 28 29 29 29 29 30 31 31 31 32 32 33 33 33 33 33 33 34 34 34 35 35 36 36 35 36
22 23 24 24 24 25 26 26 26 27 28 28 29 30 30 31 31 31 32 32 33 33 33 33 33 33 33 34 34 34 33 33 34 34 35 35 34 34
24 25 26 26 27 27 28 28 28 28 29 29 30 31 31 31 32 32 32 33 33 33 34 33 33 33 34 34 34 33 33 33 33 34 34 33 33 33
27 27 27 28 29 30 30 30 30 31 31 31 31 32 32 33 33 33 33 33 33 33 33 33 33 33 33 33 33 33 33 33 33 32 32 32 31 31
29 29 30 30 31 31 31 31 31 32 32 32 33 33 33 33 33 33 33 33 34 33 33 33 33 33 33 32 32 33 33 32 32 31 31 31 30 29
31 31 31 31 31 32 32 32 32 32 32 33 33 34 34 34 34 34 33 33 33 33 33 33 33 33 33 32 33 32 32 31 31 30 29 29 29 28
31 32 32 32 32 32 32 33 33 33 34 34 34 34 33 33 33 33 33 33 33 34 34 33 33 33 32 32 32 31 31 31 30 29 28 28 27 27
32 32 32 32 32 32 32 33 33 34 34 35 34 34 34 34 33 33 34 34 34 34 34 34 33 33 32 32 31 31 31 30 29 28 27 27 28 27
33 33 32 33 33 33 33 33 34 35 35 35 35 34 35 35 35 35 34 34 34 34 34 33 33 32 32 31 31 31 30 29 28 27 27 26 26 26
34 34 34 34 34 34 34 35 35 35 35 35 35 35 35 35 35 35 35 34 34 33 33 33 32 32 32 31 30 29 29 28 27 27 27 26 26 26
35 35 35 35 35 35 35 35 35 34 34 35 35 35 35 35 35 35 35 34 33 33 33 32 31 31 30 30 29 29 28 28 27 26 26 26 26 26
36 36 36 36 35 35 35 35 35 34 34 35 35 35 35 35 35 34 34 34 33 33 32 32 31 31 31 30 29 28 28 28 27 26 26 27 26 26
Wind_Direction
278 276 277 278 279 281 282 278 276 276 278 279 280 278 279 281 281 282 283 284 285 285 284 285 284 284 284 283 281 279 279 279 279 281 281 280 281 281
280 280 281 281 281 282 284 281 278 278 278 278 280 280 280 281 281 283 284 287 286 286 286 284 285 284 284 284 282 280 281 281 282 282 282 282 282 281
286 282 282 282 282 281 282 281 278 279 280 279 280 281 283 284 286 285 286 287 287 286 285 284 283 283 284 282 282 282 282 283 284 283 282 282 283 281
290 286 284 283 282 282 281 281 280 281 281 282 283 282 282 283 286 288 288 287 287 287 286 285 283 283 285 284 283 283 284 285 285 284 284 284 284 285
292 291 290 289 284 283 282 282 282 283 283 285 285 285 283 284 287 288 288 289 289 288 289 288 286 285 287 288 289 287 287 286 286 286 287 286 286 286
293 292 292 291 288 287 284 285 287 288 288 289 288 288 287 287 289 289 289 290 290 290 291 291 291 290 290 290 290 288 288 288 287 287 287 287 288 289
293 292 292 291 290 289 287 288 289 290 290 291 290 289 290 290 291 291 290 290 291 291 291 292 292 292 292 292 291 290 289 289 289 289 289 290 291 291
293 292 291 291 290 290 290 291 291 292 291 291 291 292 293 293 291 290 291 290 291 292 293 294 294 294 294 293 293 291 290 290 290 290 290 291 291 291
294 292 291 289 290 291 292 292 292 292 292 293 292 292 293 293 291 292 293 292 292 294 294 295 296 295 295 294 294 293 292 291 291 291 292 292 291 292
296 294 292 290 290 291 290 291 292 292 293 294 294 294 295 295 295 295 294 294 295 296 295 295 295 295 295 295 295 294 294 293 294 294 294 294 294 294
296 296 295 294 293 293 292 292 291 291 292 292 293 294 296 296 296 295 295 295 295 296 296 296 297 297 297 297 297 296 296 296 295 295 295 296 296 295
296 295 295 295 295 295 294 293 292 291 291 292 293 294 296 296 295 294 294 294 295 296 297 298 299 299 299 300 300 299 298 298 298 298 298 299 298 298
295 295 295 295 295 294 294 293 293 292 292 293 293 294 295 295 294 294 294 294 295 296 297 298 299 300 300 301 301 300 300 299 299 301 301 300 300 299
296 295 294 293 293 294 294 293 292 292 293 293 294 294 295 294 295 295 295 295 295 296 297 298 299 300 300 301 301 301 301 301 301 302 302 301 301 301
297 297 296 294 293 293 293 293 292 291 292 292 293 294 294 295 295 296 296 296 296 297 297 298 299 300 300 301 301 300 301 301 302 303 304 303 303 302
296 295 294 294 293 293 293 293 292 292 292 293 293 294 295 295 296 297 296 296 296 296 297 298 299 300 300 299 299 300 302 303 303 304 304 304 303 303
295 295 295 294 294 293 293 292 291 292 293 294 294 294 295 295 296 297 297 296 296 296 297 297 298 300 300 299 299 299 301 303 303 303 303 303 304 305
296 296 295 294 294 293 291 290 291 292 293 294 295 295 295 295 296 297 297 297 297 296 296 295 297 298 299 299 299 299 301 302 302 301 301 303 304 304
295 295 295 294 293 292 291 291 291 292 293 294 294 294 295 296 296 297 297 297 297 296 295 295 296 296 297 298 298 298 300 301 301 300 301 301 301 302
294 293 293 293 293 293 292 292 292 293 294 294 294 293 294 295 296 296 296 296 296 295 295 295 296 296 296 297 298 298 299 300 301 300 301 301 301 301
293 292 292 292 292 292 292 292 292 293 294 294 293 293 294 294 295 295 295 296 296 295 295 295 295 295 296 296 297 298 298 299 300 300 300 300 299 298
291 291 291 291 291 292 293 294 294 293 294 294 293 293 294 294 294 294 294 295 295 295 295 295 295 296 297 296 295 296 297 298 299 300 300 301 301 301
292 291 291 292 292 292 293 294 294 293 293 294 294 294 295 295 295 294 294 294 293 293 294 294 294 295 295 295 295 295 296 296 297 298 299 301 302 303
Height
5872 5872 5871 5871 5870 5870 5869 5868 5868 5868 5867 5866 5865 5865 5864 5863 5861 5860 5859 5858 5857 5856 5855 5854 5853 5851 5850 5848 5847 5845 5844 5843 5842 5841 5839 5838 5836 5835
5868 5868 5867 5867 5866 5865 5864 5863 5863 5863 5862 5862 5860 5859 5858 5857 5856 5855 5854 5853 5852 5850 5849 5848 5846 5845 5843 5842 5840 5838 5837 5836 5834 5833 5831 5830 5828 5827
5865 5864 5863 5862 5862 5861 5860 5859 5858 5858 5858 5857 5856 5854 5853 5852 5851 5850 5848 5847 5846 5844 5842 5841 5839 5838 5836 5834 5833 5831 5830 5828 5826 5825 5823 5822 5820 5818
5861 5860 5859 5858 5857 5856 5855 5854 5854 5853 5852 5852 5850 5849 5848 5847 5845 5844 5842 5840 5839 5837 5835 5834 5832 5830 5829 5827 5825 5823 5822 5820 5818 5816 5814 5813 5811 5809
5857 5856 5855 5854 5852 5851 5850 5849 5849 5848 5847 5846 5845 5844 5842 5841 5839 5838 5836 5834 5832 5830 5828 5827 5825 5823 5821 5819 5817 5815 5814 5812 5810 5808 5806 5803 5801 5799
5854 5852 5851 5850 5848 5847 5846 5845 5844 5843 5842 5841 5839 5838 5836 5834 5833 5831 5829 5827 5825 5823 5822 5820 5817 5816 5814 5812 5810 5808 5806 5803 5801 5799 5797 5794 5792 5790
5850 5848 5847 5846 5844 5843 5842 5840 5839 5838 5836 5835 5833 5832 5830 5828 5826 5824 5822 5820 5818 5816 5814 5812 5810 5808 5806 5803 5801 5799 5797 5795 5792 5790 5787 5785 5782 5780
5845 5844 5842 5841 5840 5838 5837 5835 5834 5832 5831 5829 5828 5826 5824 5822 5819 5817 5815 5813 5811 5809 5807 5805 5803 5800 5798 5795 5793 5790 5788 5786 5783 5781 5778 5775 5772 5769
5841 5839 5837 5836 5835 5833 5832 5830 5829 5827 5825 5824 5822 5820 5817 5815 5813 5810 5808 5806 5804 5802 5800 5797 5795 5792 5790 5787 5784 5782 5779 5777 5774 5771 5768 5765 5762 5759
5836 5834 5833 5831 5830 5828 5826 5825 5823 5821 5819 5817 5815 5813 5811 5808 5806 5804 5801 5799 5797 5794 5792 5790 5787 5784 5781 5779 5776 5773 5770 5768 5765 5762 5759 5755 5752 5749
5832 5830 5828 5826 5824 5822 5820 5819 5817 5815 5812 5810 5808 5806 5804 5801 5799 5797 5794 5792 5789 5786 5784 5781 5778 5776 5773 5770 5767 5764 5761 5758 5755 5752 5749 5745 5742 5738
5827 5825 5823 5821 5818 5816 5814 5812 5810 5808 5806 5804 5801 5799 5797 5794 5792 5789 5787 5784 5781 5779 5776 5773 5770 5767 5764 5761 5758 5755 5752 5748 5745 5742 5739 5735 5731 5728
5821 5819 5817 5814 5812 5810 5808 5806 5803 5801 5799 5797 5794 5792 5789 5786 5784 5781 5779 5776 5773 5770 5768 5765 5761 5758 5755 5752 5749 5746 5742 5739 5736 5732 5729 5725 5722 5718
5815 5812 5810 5808 5805 5803 5801 5798 5796 5794 5791 5789 5786 5784 5781 5778 5776 5773 5770 5767 5764 5762 5759 5756 5753 5750 5747 5743 5740 5736 5733 5730 5726 5723 5719 5716 5712 5709
5808 5805 5803 5800 5798 5795 5793 5791 5788 5786 5783 5781 5778 5775 5773 5770 5767 5764 5762 5759 5756 5753 5750 5747 5744 5740 5737 5734 5731 5727 5724 5721 5717 5713 5710 5706 5703 5700
5800 5798 5795 5792 5790 5787 5785 5782 5780 5777 5775 5772 5770 5767 5764 5761 5759 5756 5753 5750 5747 5744 5741 5738 5735 5732 5728 5725 5722 5719 5715 5712 5709 5705 5702 5698 5695 5691
5792 5789 5787 5784 5781 5779 5776 5774 5771 5768 5766 5764 5761 5758 5755 5752 5749 5746 5743 5740 5738 5735 5732 5728 5725 5722 5719 5716 5713 5710 5706 5703 5700 5697 5694 5690 5687 5684
5783 5781 5778 5775 5773 5770 5767 5765 5762 5760 5757 5755 5752 5749 5746 5743 5740 5737 5734 5731 5728 5725 5722 5719 5716 5713 5710 5707 5704 5701 5698 5694 5691 5688 5685 5682 5679 5676
5774 5772 5769 5766 5764 5761 5759 5756 5753 5751 5748 5745 5742 5739 5736 5734 5731 5728 5725 5722 5719 5716 5713 5710 5707 5704 5701 5698 5695 5692 5689 5686 5683 5680 5677 5674 5672 5669
5765 5762 5760 5757 5754 5752 5749 5747 5744 5741 5738 5735 5732 5729 5727 5724 5721 5718 5715 5712 5709 5706 5703 5700 5698 5695 5692 5690 5687 5684 5680 5678 5675 5672 5669 5666 5664 5661
5755 5753 5750 5747 5745 5742 5739 5737 5734 5731 5728 5726 5722 5720 5717 5714 5711 5708 5705 5702 5699 5697 5694 5691 5688 5685 5683 5680 5678 5675 5672 5669 5667 5664 5661 5659 5656 5654
5745 5743 5740 5737 5735 5732 5729 5727 5724 5721 5718 5716 5713 5710 5707 5704 5701 5698 5695 5692 5690 5687 5684 5682 5679 5676 5674 5671 5668 5666 5664 5661 5658 5656 5653 5651 5649 5646
5735 5732 5730 5727 5724 5722 5719 5716 5714 5711 5708 5705 5702 5699 5697 5694 5691 5688 5685 5683 5680 5677 5675 5672 5669 5667 5664 5662 5660 5657 5655 5652 5650 5648 5646 5643 5641 5638